SKW816 KOKC-KORD

Flight info

Callsign SKW816
Flight time 1h 35m
Altitude 39000
Route TRUPR3 GTYER WELTS TRTLL6
Aircraft CRJ7/M-SDFGIRWY/S

Departure

Time 2026-04-25 01:26
Airport OKC Will Rogers World Airport (KOKC)

Arrival

Time 2026-04-25 03:01
Airport Chicago O'Hare International Airport (KORD)
Time Latitude Longitude Altitude Speed Heading
2026-04-25 00:55 35.39565 -97.59816 1295 ft 0 kts 180°
2026-04-25 01:19 35.39592 -97.59815 1295 ft 3 kts 184°
2026-04-25 01:19 35.39620 -97.59812 1295 ft 0 kts 187°
2026-04-25 01:20 35.39603 -97.59826 1295 ft 6 kts 228°
2026-04-25 01:20 35.39602 -97.59886 1295 ft 8 kts 277°
2026-04-25 01:20 35.39606 -97.59963 1295 ft 10 kts 265°
2026-04-25 01:21 35.39588 -97.60047 1294 ft 12 kts 253°
2026-04-25 01:21 35.39563 -97.60166 1289 ft 16 kts 250°
2026-04-25 01:21 35.39585 -97.60288 1289 ft 16 kts 313°
2026-04-25 01:21 35.39600 -97.60396 1287 ft 1 kts 224°
2026-04-25 01:22 35.39592 -97.60398 1287 ft 3 kts 181°
2026-04-25 01:22 35.39554 -97.60393 1286 ft 9 kts 174°
2026-04-25 01:22 35.39471 -97.60386 1287 ft 16 kts 176°
2026-04-25 01:22 35.39345 -97.60378 1289 ft 20 kts 176°
2026-04-25 01:23 35.39216 -97.60372 1293 ft 18 kts 177°
2026-04-25 01:23 35.39094 -97.60361 1294 ft 18 kts 176°
2026-04-25 01:23 35.38955 -97.60353 1294 ft 22 kts 177°
2026-04-25 01:23 35.38796 -97.60342 1295 ft 24 kts 175°
2026-04-25 01:24 35.38615 -97.60335 1290 ft 29 kts 180°
2026-04-25 01:24 35.38403 -97.60334 1288 ft 32 kts 180°
2026-04-25 01:24 35.38174 -97.60334 1284 ft 33 kts 180°
2026-04-25 01:24 35.38022 -97.60335 1286 ft 30 kts 179°
2026-04-25 01:25 35.37923 -97.60413 1288 ft 18 kts 262°
2026-04-25 01:25 35.37930 -97.60559 1288 ft 16 kts 317°
2026-04-25 01:25 35.38059 -97.60571 1288 ft 34 kts
2026-04-25 01:25 35.38576 -97.60571 1292 ft 113 kts
2026-04-25 01:26 35.39572 -97.60584 1438 ft 162 kts
2026-04-25 01:26 35.40749 -97.60599 2206 ft 175 kts
2026-04-25 01:26 35.42005 -97.60595 2941 ft 193 kts
2026-04-25 01:26 35.43500 -97.60624 3383 ft 233 kts
2026-04-25 01:27 35.45104 -97.60123 4200 ft 246 kts 38°
2026-04-25 01:27 35.46171 -97.58456 5082 ft 258 kts 65°
2026-04-25 01:27 35.46939 -97.56444 6259 ft 262 kts 67°
2026-04-25 01:28 35.48389 -97.52262 8358 ft 276 kts 68°
2026-04-25 01:28 35.49125 -97.50037 9231 ft 290 kts 68°
2026-04-25 01:28 35.49900 -97.47621 9691 ft 320 kts 68°
2026-04-25 01:28 35.50753 -97.44936 9886 ft 355 kts 68°
2026-04-25 01:29 35.51682 -97.41949 9976 ft 391 kts 68°
2026-04-25 01:29 35.52699 -97.38683 10022 ft 425 kts 69°
2026-04-25 01:29 35.53801 -97.35165 10045 ft 455 kts 69°
2026-04-25 01:29 35.54926 -97.31547 11271 ft 442 kts 69°
2026-04-25 01:30 35.55993 -97.28120 13312 ft 420 kts 68°
2026-04-25 01:30 35.57025 -97.24835 14826 ft 406 kts 68°
2026-04-25 01:30 35.58034 -97.21643 16013 ft 400 kts 67°
2026-04-25 01:30 35.59043 -97.18473 16663 ft 407 kts 67°
2026-04-25 01:31 35.60088 -97.15212 17301 ft 414 kts 67°
2026-04-25 01:31 35.61156 -97.11896 17926 ft 420 kts 66°
2026-04-25 01:31 35.62247 -97.08534 18493 ft 426 kts 66°
2026-04-25 01:31 35.63358 -97.05132 19071 ft 430 kts 66°
2026-04-25 01:32 35.64489 -97.01708 19655 ft 434 kts 65°
2026-04-25 01:32 35.65646 -96.98253 20212 ft 438 kts 65°
2026-04-25 01:32 35.66839 -96.94786 20754 ft 442 kts 63°
2026-04-25 01:32 35.68199 -96.91424 21287 ft 444 kts 58°
2026-04-25 01:33 35.69766 -96.88141 21797 ft 446 kts 52°
2026-04-25 01:33 35.71718 -96.85197 22289 ft 445 kts 43°
2026-04-25 01:33 35.73848 -96.82419 22789 ft 448 kts 42°
2026-04-25 01:33 35.75990 -96.79593 23271 ft 452 kts 44°
2026-04-25 01:34 35.78073 -96.76663 23694 ft 456 kts 45°
2026-04-25 01:34 35.80138 -96.73672 24013 ft 459 kts 45°
2026-04-25 01:34 35.82216 -96.70674 24331 ft 461 kts 45°
2026-04-25 01:34 35.84305 -96.67670 24635 ft 463 kts 45°
2026-04-25 01:35 35.86403 -96.64646 24928 ft 465 kts 45°
2026-04-25 01:35 35.88512 -96.61609 25218 ft 467 kts 45°
2026-04-25 01:35 35.90628 -96.58554 25502 ft 469 kts 45°
2026-04-25 01:35 35.92751 -96.55483 25769 ft 471 kts 45°
2026-04-25 01:36 35.94884 -96.52396 26030 ft 473 kts 45°
2026-04-25 01:36 35.97025 -96.49296 26308 ft 475 kts 45°
2026-04-25 01:36 35.99171 -96.46183 26553 ft 477 kts 45°
2026-04-25 01:36 36.01329 -96.43054 26786 ft 479 kts 46°
2026-04-25 01:37 36.03489 -96.39911 27026 ft 481 kts 46°
2026-04-25 01:37 36.05659 -96.36756 27277 ft 483 kts 45°
2026-04-25 01:37 36.07838 -96.33588 27497 ft 485 kts 46°
2026-04-25 01:37 36.10027 -96.30406 27685 ft 487 kts 46°
2026-04-25 01:38 36.12226 -96.27203 27884 ft 489 kts 45°
2026-04-25 01:38 36.14402 -96.24028 28093 ft 491 kts 46°
2026-04-25 01:38 36.16615 -96.20798 28284 ft 493 kts 46°
2026-04-25 01:38 36.18833 -96.17555 28479 ft 494 kts 46°
2026-04-25 01:39 36.21057 -96.14299 28678 ft 495 kts 46°
2026-04-25 01:39 36.23286 -96.11035 28766 ft 499 kts 46°
2026-04-25 01:39 36.27800 -96.04409 28833 ft 507 kts 46°
2026-04-25 01:40 36.32389 -95.97665 28841 ft 515 kts 46°
2026-04-25 01:40 36.37026 -95.90830 28852 ft 518 kts 46°
2026-04-25 01:41 36.41651 -95.84005 28835 ft 515 kts 46°
2026-04-25 01:41 36.46261 -95.77198 28830 ft 513 kts 46°
2026-04-25 01:42 36.50847 -95.70393 28822 ft 512 kts 46°
2026-04-25 01:42 36.55414 -95.63608 28830 ft 511 kts 47°
2026-04-25 01:43 36.59947 -95.56873 28831 ft 510 kts 47°
2026-04-25 01:43 36.64493 -95.50086 28844 ft 510 kts 46°
2026-04-25 01:44 36.69043 -95.43305 28840 ft 510 kts 46°
2026-04-25 01:44 36.73590 -95.36497 28837 ft 510 kts 46°
2026-04-25 01:45 36.78131 -95.29685 28838 ft 510 kts 47°
2026-04-25 01:45 36.82667 -95.22867 28844 ft 510 kts 47°
2026-04-25 01:46 36.87197 -95.16044 28852 ft 510 kts 47°
2026-04-25 01:46 36.91688 -95.09269 28862 ft 511 kts 47°
2026-04-25 01:47 36.96260 -95.02358 28856 ft 511 kts 47°
2026-04-25 01:47 37.00757 -94.95544 28858 ft 511 kts 47°
2026-04-25 01:48 37.05289 -94.88649 28858 ft 512 kts 47°
2026-04-25 01:48 37.09817 -94.81766 28855 ft 512 kts 47°
2026-04-25 01:49 37.14300 -94.74933 28879 ft 512 kts 47°
2026-04-25 01:49 37.18876 -94.67942 28871 ft 513 kts 47°
2026-04-25 01:50 37.23382 -94.61047 28870 ft 514 kts 48°
2026-04-25 01:50 37.27915 -94.54086 28865 ft 514 kts 48°
2026-04-25 01:51 37.32439 -94.47125 28870 ft 515 kts 48°
2026-04-25 01:51 37.36972 -94.40139 28876 ft 515 kts 48°
2026-04-25 01:52 37.41483 -94.33176 28887 ft 516 kts 48°
2026-04-25 01:52 37.46033 -94.26135 28878 ft 517 kts 48°
2026-04-25 01:53 37.50573 -94.19097 28873 ft 517 kts 49°
2026-04-25 01:53 37.55106 -94.12049 28881 ft 518 kts 49°
2026-04-25 01:54 37.59614 -94.05027 28880 ft 518 kts 49°
2026-04-25 01:54 37.64148 -93.97953 28881 ft 519 kts 49°
2026-04-25 01:55 37.68688 -93.90857 28887 ft 520 kts 49°
2026-04-25 01:55 37.73228 -93.83740 28887 ft 520 kts 49°
2026-04-25 01:56 37.77764 -93.76615 28879 ft 521 kts 49°
2026-04-25 01:56 37.82294 -93.69481 28882 ft 521 kts 49°
2026-04-25 01:57 37.89110 -93.58724 28889 ft 522 kts 49°
2026-04-25 01:58 37.93620 -93.51582 28895 ft 523 kts 49°
2026-04-25 01:58 37.98159 -93.44381 28888 ft 523 kts 49°
2026-04-25 01:59 38.02700 -93.37160 28896 ft 523 kts 49°
2026-04-25 01:59 38.07240 -93.29927 28900 ft 524 kts 49°
2026-04-25 02:00 38.11784 -93.22675 28897 ft 524 kts 50°
2026-04-25 02:00 38.16313 -93.15426 28932 ft 524 kts 50°
2026-04-25 02:01 38.20848 -93.08147 28910 ft 525 kts 50°
2026-04-25 02:01 38.25345 -93.00915 28909 ft 525 kts 50°
2026-04-25 02:02 38.29882 -92.93604 28913 ft 525 kts 50°
2026-04-25 02:02 38.34414 -92.86288 28903 ft 525 kts 50°
2026-04-25 02:03 38.38938 -92.78967 28913 ft 525 kts 50°
2026-04-25 02:03 38.43462 -92.71631 28912 ft 526 kts 50°
2026-04-25 02:04 38.47974 -92.64297 28909 ft 526 kts 50°
2026-04-25 02:04 38.52460 -92.56987 28909 ft 526 kts 50°
2026-04-25 02:05 38.56969 -92.49619 28909 ft 526 kts 50°
2026-04-25 02:05 38.61473 -92.42245 28905 ft 526 kts 50°
2026-04-25 02:06 38.65974 -92.34860 28906 ft 526 kts 50°
2026-04-25 02:06 38.70470 -92.27467 28930 ft 526 kts 50°
2026-04-25 02:07 38.74962 -92.20066 28930 ft 526 kts 51°
2026-04-25 02:07 38.79421 -92.12704 28920 ft 526 kts 51°
2026-04-25 02:08 38.83905 -92.05275 28918 ft 526 kts 50°
2026-04-25 02:08 38.88383 -91.97842 28922 ft 526 kts 51°
2026-04-25 02:09 38.92860 -91.90393 28903 ft 526 kts 51°
2026-04-25 02:09 38.97332 -91.82936 28918 ft 526 kts 51°
2026-04-25 02:10 39.01818 -91.75474 28921 ft 526 kts 50°
2026-04-25 02:10 39.06428 -91.68239 28928 ft 526 kts 48°
2026-04-25 02:11 39.11094 -91.60978 28919 ft 526 kts 49°
2026-04-25 02:11 39.14970 -91.54927 28924 ft 526 kts 49°
2026-04-25 02:12 39.19624 -91.47642 28908 ft 526 kts 49°
2026-04-25 02:12 39.24274 -91.40357 28904 ft 526 kts 49°
2026-04-25 02:13 39.28914 -91.33060 28906 ft 526 kts 49°
2026-04-25 02:13 39.33558 -91.25754 28898 ft 526 kts 49°
2026-04-25 02:14 39.38198 -91.18427 28916 ft 526 kts 49°
2026-04-25 02:14 39.42812 -91.11135 28918 ft 526 kts 49°
2026-04-25 02:15 39.47431 -91.03801 28932 ft 526 kts 50°
2026-04-25 02:15 39.52055 -90.96459 28952 ft 526 kts 49°
2026-04-25 02:16 39.56663 -90.89106 28930 ft 526 kts 50°
2026-04-25 02:16 39.61283 -90.81732 28941 ft 526 kts 50°
2026-04-25 02:17 39.65893 -90.74343 28918 ft 526 kts 50°
2026-04-25 02:17 39.70500 -90.66947 28929 ft 526 kts 50°
2026-04-25 02:18 39.75097 -90.59550 28920 ft 526 kts 50°
2026-04-25 02:18 39.79657 -90.52197 28910 ft 526 kts 50°
2026-04-25 02:19 39.84250 -90.44774 28926 ft 526 kts 50°
2026-04-25 02:19 39.88837 -90.37340 28888 ft 527 kts 50°
2026-04-25 02:20 39.93420 -90.29894 28916 ft 526 kts 50°
2026-04-25 02:20 39.98341 -90.22874 28908 ft 523 kts 39°
2026-04-25 02:21 40.03981 -90.16906 28929 ft 522 kts 36°
2026-04-25 02:21 40.09483 -90.10809 28899 ft 523 kts 39°
2026-04-25 02:22 40.14991 -90.04596 28897 ft 523 kts 38°
2026-04-25 02:22 40.20497 -89.98383 28862 ft 523 kts 39°
2026-04-25 02:23 40.25976 -89.92175 28307 ft 519 kts 39°
2026-04-25 02:23 40.28692 -89.89094 27776 ft 514 kts 39°
2026-04-25 02:23 40.31382 -89.86043 27259 ft 507 kts 39°
2026-04-25 02:23 40.34037 -89.83024 26747 ft 501 kts 39°
2026-04-25 02:24 40.36649 -89.80043 26246 ft 496 kts 39°
2026-04-25 02:24 40.39241 -89.77081 25758 ft 491 kts 39°
2026-04-25 02:24 40.41804 -89.74162 25278 ft 486 kts 39°
2026-04-25 02:24 40.44316 -89.71290 24810 ft 482 kts 40°
2026-04-25 02:25 40.46838 -89.68412 24344 ft 478 kts 40°
2026-04-25 02:25 40.49339 -89.65552 23898 ft 474 kts 40°
2026-04-25 02:25 40.51821 -89.62709 23439 ft 470 kts 40°
2026-04-25 02:25 40.54279 -89.59890 22891 ft 466 kts 40°
2026-04-25 02:26 40.56722 -89.57091 22360 ft 463 kts 40°
2026-04-25 02:26 40.59149 -89.54307 21833 ft 460 kts 40°
2026-04-25 02:26 40.61557 -89.51540 21315 ft 458 kts 40°
2026-04-25 02:26 40.63923 -89.48821 20810 ft 456 kts 40°
2026-04-25 02:27 40.66303 -89.46080 20314 ft 453 kts 40°
2026-04-25 02:27 40.68678 -89.43352 19821 ft 451 kts 40°
2026-04-25 02:27 40.71034 -89.40634 19339 ft 450 kts 40°
2026-04-25 02:27 40.73386 -89.37920 18858 ft 448 kts 40°
2026-04-25 02:28 40.75699 -89.35176 18389 ft 446 kts 41°
2026-04-25 02:28 40.77998 -89.32430 17878 ft 445 kts 41°
2026-04-25 02:28 40.80295 -89.29696 17344 ft 443 kts 40°
2026-04-25 02:28 40.82576 -89.26983 16826 ft 441 kts 40°
2026-04-25 02:29 40.84850 -89.24271 16315 ft 438 kts 40°
2026-04-25 02:29 40.87102 -89.21578 15806 ft 436 kts 40°
2026-04-25 02:29 40.89345 -89.18893 15319 ft 433 kts 40°
2026-04-25 02:29 40.91572 -89.16229 14839 ft 431 kts 40°
2026-04-25 02:30 40.93784 -89.13580 14361 ft 428 kts 39°
2026-04-25 02:30 40.95959 -89.10972 13896 ft 425 kts 39°
2026-04-25 02:30 40.98143 -89.08353 13394 ft 422 kts 39°
2026-04-25 02:30 41.00309 -89.05754 12870 ft 416 kts 39°
2026-04-25 02:31 41.02406 -89.03222 12353 ft 400 kts 39°
2026-04-25 02:31 41.04428 -89.00789 11843 ft 386 kts 39°
2026-04-25 02:31 41.06387 -88.98435 11357 ft 374 kts 39°
2026-04-25 02:31 41.08267 -88.96160 11094 ft 358 kts 40°
2026-04-25 02:32 41.10064 -88.93989 10971 ft 340 kts 39°
2026-04-25 02:32 41.11770 -88.91930 10910 ft 324 kts 39°
2026-04-25 02:32 41.13400 -88.89962 10896 ft 309 kts 39°
2026-04-25 02:32 41.14970 -88.88062 10882 ft 302 kts 39°
2026-04-25 02:33 41.16510 -88.86206 10877 ft 296 kts 39°
2026-04-25 02:33 41.18028 -88.84378 10881 ft 291 kts 39°
2026-04-25 02:33 41.19515 -88.82578 10873 ft 287 kts 39°
2026-04-25 02:33 41.20960 -88.80818 10879 ft 284 kts 39°
2026-04-25 02:34 41.22398 -88.79046 10881 ft 281 kts 40°
2026-04-25 02:34 41.23812 -88.77299 10878 ft 281 kts 39°
2026-04-25 02:34 41.25271 -88.75511 10879 ft 283 kts 39°
2026-04-25 02:34 41.26729 -88.73734 10877 ft 285 kts 39°
2026-04-25 02:35 41.28201 -88.71950 10878 ft 287 kts 39°
2026-04-25 02:35 41.29684 -88.70152 10881 ft 289 kts 39°
2026-04-25 02:35 41.31171 -88.68348 10882 ft 290 kts 39°
2026-04-25 02:35 41.32668 -88.66527 10879 ft 292 kts 39°
2026-04-25 02:36 41.34165 -88.64701 10884 ft 293 kts 39°
2026-04-25 02:36 41.35650 -88.62887 10880 ft 293 kts 39°
2026-04-25 02:36 41.37159 -88.61041 10875 ft 294 kts 39°
2026-04-25 02:36 41.38674 -88.59206 10873 ft 295 kts 39°
2026-04-25 02:37 41.40203 -88.57380 10867 ft 295 kts 38°
2026-04-25 02:37 41.41734 -88.55555 10874 ft 295 kts 38°
2026-04-25 02:37 41.43269 -88.53730 10864 ft 296 kts 38°
2026-04-25 02:37 41.44805 -88.51905 10868 ft 296 kts 38°
2026-04-25 02:38 41.46342 -88.50076 10871 ft 296 kts 39°
2026-04-25 02:38 41.47880 -88.48247 10871 ft 296 kts 38°
2026-04-25 02:38 41.49420 -88.46414 10890 ft 297 kts 38°
2026-04-25 02:38 41.50961 -88.44574 10893 ft 297 kts 38°
2026-04-25 02:39 41.52504 -88.42735 10894 ft 297 kts 38°
2026-04-25 02:39 41.54028 -88.40916 10896 ft 297 kts 38°
2026-04-25 02:39 41.55568 -88.39075 10893 ft 298 kts 38°
2026-04-25 02:39 41.57113 -88.37233 10896 ft 298 kts 38°
2026-04-25 02:40 41.58658 -88.35389 10897 ft 298 kts 38°
2026-04-25 02:40 41.60203 -88.33540 10901 ft 298 kts 39°
2026-04-25 02:40 41.61746 -88.31686 10901 ft 298 kts 38°
2026-04-25 02:40 41.63297 -88.29845 10899 ft 298 kts 38°
2026-04-25 02:41 41.64850 -88.28006 10895 ft 298 kts 38°
2026-04-25 02:41 41.66402 -88.26161 10893 ft 298 kts 38°
2026-04-25 02:41 41.67955 -88.24310 10892 ft 299 kts 38°
2026-04-25 02:41 41.69504 -88.22461 10888 ft 299 kts 38°
2026-04-25 02:42 41.71055 -88.20611 10887 ft 299 kts 38°
2026-04-25 02:42 41.72609 -88.18760 10872 ft 299 kts 38°
2026-04-25 02:42 41.74161 -88.16907 10873 ft 299 kts 38°
2026-04-25 02:42 41.75711 -88.15053 10874 ft 299 kts 38°
2026-04-25 02:43 41.77262 -88.13198 10883 ft 299 kts 38°
2026-04-25 02:43 41.78819 -88.11341 10890 ft 299 kts 38°
2026-04-25 02:43 41.80365 -88.09474 10886 ft 299 kts 39°
2026-04-25 02:43 41.81894 -88.07573 10871 ft 300 kts 40°
2026-04-25 02:44 41.83397 -88.05632 10865 ft 300 kts 41°
2026-04-25 02:44 41.84886 -88.03668 10871 ft 300 kts 41°
2026-04-25 02:44 41.86372 -88.01696 10876 ft 300 kts 41°
2026-04-25 02:44 41.87788 -87.99629 10860 ft 304 kts 54°
2026-04-25 02:45 41.88487 -87.96932 10875 ft 311 kts 78°
2026-04-25 02:45 41.88642 -87.94027 10880 ft 313 kts 86°
2026-04-25 02:45 41.88608 -87.91103 10894 ft 314 kts 89°
2026-04-25 02:45 41.88529 -87.88162 10762 ft 318 kts 89°
2026-04-25 02:46 41.88450 -87.85181 10525 ft 321 kts 89°
2026-04-25 02:46 41.88407 -87.82178 10291 ft 323 kts 88°
2026-04-25 02:46 41.88398 -87.79190 10063 ft 325 kts 87°
2026-04-25 02:46 41.88399 -87.76111 9827 ft 326 kts 87°
2026-04-25 02:47 41.88397 -87.73068 9576 ft 327 kts 87°
2026-04-25 02:47 41.88392 -87.70056 9335 ft 327 kts 87°
2026-04-25 02:47 41.88387 -87.67025 9076 ft 320 kts 87°
2026-04-25 02:47 41.88381 -87.64064 8813 ft 314 kts 87°
2026-04-25 02:48 41.88375 -87.61163 8549 ft 308 kts 88°
2026-04-25 02:48 41.88369 -87.58313 8288 ft 303 kts 88°
2026-04-25 02:48 41.88361 -87.55508 8064 ft 297 kts 88°
2026-04-25 02:48 41.88354 -87.52775 7953 ft 288 kts 88°
2026-04-25 02:49 41.88342 -87.50128 7898 ft 279 kts 88°
2026-04-25 02:49 41.88324 -87.47558 7745 ft 275 kts 88°
2026-04-25 02:49 41.88309 -87.44995 7487 ft 275 kts 88°
2026-04-25 02:49 41.88295 -87.42436 7234 ft 274 kts 88°
2026-04-25 02:50 41.88286 -87.39885 7046 ft 271 kts 88°
2026-04-25 02:50 41.88278 -87.37382 6954 ft 264 kts 88°
2026-04-25 02:50 41.88291 -87.34954 6903 ft 255 kts 82°
2026-04-25 02:50 41.88925 -87.32855 6870 ft 237 kts 44°
2026-04-25 02:51 41.90273 -87.31816 6883 ft 218 kts
2026-04-25 02:51 41.91715 -87.31474 6892 ft 210 kts
2026-04-25 02:51 41.93137 -87.31200 6908 ft 200 kts
2026-04-25 02:51 41.94477 -87.31146 6953 ft 190 kts 346°
2026-04-25 02:52 41.95500 -87.32128 6939 ft 184 kts 302°
2026-04-25 02:52 41.96175 -87.33692 6948 ft 203 kts 300°
2026-04-25 02:52 41.96881 -87.35436 6953 ft 221 kts 298°
2026-04-25 02:52 41.97615 -87.37328 6950 ft 235 kts 298°
2026-04-25 02:53 41.98372 -87.39329 6941 ft 244 kts 297°
2026-04-25 02:53 41.99117 -87.41321 6913 ft 233 kts 297°
2026-04-25 02:53 41.99812 -87.43249 6887 ft 225 kts 293°
2026-04-25 02:53 41.99863 -87.45300 6859 ft 224 kts 255°
2026-04-25 02:54 41.99369 -87.47270 6670 ft 223 kts 258°
2026-04-25 02:54 41.99024 -87.49304 6373 ft 223 kts 261°
2026-04-25 02:54 41.98817 -87.51363 6072 ft 221 kts 269°
2026-04-25 02:54 41.98763 -87.53400 5783 ft 220 kts 271°
2026-04-25 02:55 41.98744 -87.55452 5490 ft 219 kts 272°
2026-04-25 02:55 41.98740 -87.57483 5193 ft 215 kts 272°
2026-04-25 02:55 41.98740 -87.59469 4900 ft 210 kts 273°
2026-04-25 02:55 41.98743 -87.61415 4640 ft 206 kts 273°
2026-04-25 02:56 41.98751 -87.63323 4370 ft 202 kts 273°
2026-04-25 02:56 41.98757 -87.65181 4099 ft 195 kts 274°
2026-04-25 02:56 41.98762 -87.66977 3830 ft 189 kts 274°
2026-04-25 02:56 41.98764 -87.68711 3591 ft 183 kts 274°
2026-04-25 02:57 41.98762 -87.70369 3369 ft 175 kts 274°
2026-04-25 02:57 41.98757 -87.71890 3155 ft 157 kts 275°
2026-04-25 02:57 41.98754 -87.73335 2932 ft 144 kts 276°
2026-04-25 02:57 41.98758 -87.74667 2735 ft 143 kts 276°
2026-04-25 02:58 41.98762 -87.76006 2538 ft 143 kts 276°
2026-04-25 02:58 41.98763 -87.77340 2355 ft 143 kts 276°
2026-04-25 02:58 41.98764 -87.78674 2148 ft 143 kts 276°
2026-04-25 02:58 41.98765 -87.80013 1971 ft 144 kts 277°
2026-04-25 02:59 41.98764 -87.81345 1801 ft 144 kts 276°
2026-04-25 02:59 41.98753 -87.82682 1643 ft 142 kts 278°
2026-04-25 02:59 41.98779 -87.83988 1477 ft 139 kts 278°
2026-04-25 02:59 41.98826 -87.85280 1311 ft 138 kts 276°
2026-04-25 03:00 41.98843 -87.86583 1135 ft 140 kts 272°
2026-04-25 03:00 41.98827 -87.87889 949 ft 139 kts 273°
2026-04-25 03:00 41.98826 -87.89173 721 ft 136 kts 274°
2026-04-25 03:00 41.98838 -87.90330 668 ft 105 kts 269°
2026-04-25 03:01 41.98832 -87.90879 668 ft 74 kts 270°
2026-04-25 03:01 41.98831 -87.91295 665 ft 31 kts 268°
2026-04-25 03:01 41.98764 -87.91549 667 ft 20 kts 234°
2026-04-25 03:01 41.98741 -87.91589 667 ft 0 kts 231°
2026-04-25 03:02 41.98736 -87.91598 667 ft 4 kts 231°
2026-04-25 03:02 41.98707 -87.91652 667 ft 10 kts 237°
2026-04-25 03:02 41.98675 -87.91766 667 ft 15 kts 253°
2026-04-25 03:02 41.98590 -87.91825 667 ft 16 kts 176°
2026-04-25 03:03 41.98474 -87.91817 667 ft 17 kts 182°
2026-04-25 03:03 41.98349 -87.91821 668 ft 18 kts 180°
2026-04-25 03:03 41.98213 -87.91822 667 ft 21 kts 181°
2026-04-25 03:03 41.98063 -87.91812 667 ft 22 kts 161°
2026-04-25 03:04 41.97937 -87.91685 667 ft 24 kts 140°
2026-04-25 03:04 41.97807 -87.91537 667 ft 25 kts 141°
2026-04-25 03:04 41.97745 -87.91409 667 ft 16 kts 77°
2026-04-25 03:05 41.97755 -87.91197 667 ft 6 kts 61°
2026-04-25 03:05 41.97767 -87.91142 667 ft 7 kts 97°
2026-04-25 03:05 41.97763 -87.91106 667 ft 0 kts 100°